SCP
0 0 0 0 0 0 0 0 0 0 0 0 0 0 0 0 0 0 0 0 0 0 0 0 0 0 0 0 0 0 0 0 0 0 0 0 0 0 0 0 0 0 0
0 0 0 0 0 0 0 0 0 0 0 0 0 0 0 0 0 0 0 0 0 0 0 0 0 0 0 0 0 0 0 0 0 0 0 0 0 0 0 0 0 0 0
0 0 0 0 0 0 0 0 0 0 0 0 0 0 0 0 0 0 0 0 0 0 0 0 0 0 0 0 0 0 0 0 0 0 0 0 0 0 0 0 0 0 0
0 0 0 0 0 0 0 0 0 0 0 0 0 0 0 0 0 0 0 0 0 0 0 0 0 0 0 0 0 0 0 0 0 0 0 0 0 0 0 0 0 0 0
0 0 0 0 0 0 0 0 0 0 0 0 0 0 0 0 0 0 0 0 0 0 0 0 0 0 0 0 0 0 0 0 0 0 0 0 0 0 0 0 0 0 0
0 0 0 0 0 0 0 0 0 0 0 0 0 0 0 0 0 0 0 0 0 0 0 0 0 0 0 0 0 0 0 0 0 0 0 0 0 0 0 0 0 0 0
0 0 0 0 0 0 0 0 0 0 0 0 0 0 0 0 0 0 0 0 0 0 0 0 0 0 0 0 0 0 0 0 0 0 0 0 0 0 0 0 0 0 0
0 0 0 0 0 0 0 0 0 0 0 0 0 0 0 0 0 0 0 0 0 0 0 0 0 0 0 0 0 0 0 0 0 0 0 0 0 0 0 0 0 0 0
0 0 0 0 0 0 0 0 0 0 0 0 0 0 0 0 0 0 0 0 0 0 0 0 0 0 0 0 0 0 0 0 0 0 0 0 0 0 0 0 0 0 0
0 0 0 0 0 0 0 0 0 0 0 0 0 0 0 0 0 0 0 0 0 0 0 0 0 0 0 0 0 0 0 0 0 0 0 0 0 0 0 0 0 0 0
0 0 0 0 0 0 0 0 0 0 0 0 0 0 0 0 0 0 0 0 0 0 0 0 0 0 0 0 0 0 0 0 0 0 0 0 0 0 0 0 0 0 0
0 0 0 0 0 0 0 0 0 0 0 0 0 0 0 0 0 0 0 0 0 0 0 0 0 0 0 0 0 0 0 0 0 0 0 0 0 0 0 0 0 0 0
0 0 0 0 0 0 0 0 0 0 0 0 0 0 0 0 0 0 0 0 0 0 0 0 0 0 0 0 0 0 0 0 0 0 0 0 0 0 0 0 0 0 0
0 0 0 0 0 0 0 0 0 0 0 0 0 0 0 0 0 0 0 0 0 0 0 0 0 0 0 0 0 0 0 0 0 0 0 0 0 0 0 0 0 0 0
0 0 0 0 0 0 0 0 0 0 0 0 0 0 0 0 0 0 0 0 0 0 0 0 0 0 0 0 0 0 0 0 0 0 0 0 0 0 0 0 0 0 0
0 0 0 0 0 0 0 0 0 0 0 0 0 0 0 0 0 0 0 0 0 0 0 0 0 0 0 0 0 0 0 0 0 0 0 0 0 0 0 0 0 0 0
0 0 0 0 0 0 0 0 0 0 0 0 0 0 0 0 0 0 0 0 0 0 0 0 0 0 0 0 0 0 0 0 0 0 0 0 0 0 0 0 0 0 0
0 0 0 0 0 0 0 0 0 0 0 0 0 0 0 0 0 0 0 0 0 0 0 0 0 0 0 0 0 0 0 0 0 0 0 0 0 0 0 0 0 0 0
0 0 0 0 0 0 0 0 0 0 0 0 0 0 0 0 0 0 0 0 0 0 0 0 0 0 0 0 0 0 0 0 0 0 0 0 0 0 0 0 0 0 0
0 0 0 0 0 0 0 0 0 0 0 0 0 0 0 0 0 0 0 0 0 0 0 0 0 0 0 0 0 0 0 0 0 0 0 0 0 0 0 0 0 0 0
0 0 0 0 0 0 0 0 0 0 0 0 0 0 0 0 0 0 0 0 0 0 0 0 0 0 0 0 0 0 0 0 0 0 0 0 0 0 0 0 0 0 0
0 0 0 0 0 0 0 0 0 0 0 0 0 0 0 0 0 0 0 0 0 0 0 0 0 0 0 0 0 0 0 0 0 0 0 0 0 0 0 0 0 0 0
0 0 0 0 0 0 0 0 0 0 0 0 0 0 0 0 0 0 0 0 0 0 0 0 0 0 0 0 0 0 0 0 0 0 0 0 0 0 0 0 0 0 0
0 0 0 0 0 0 0 0 0 0 0 0 0 0 0 0 0 0 0 0 0 0 0 0 0 0 0 0 0 0 0 0 0 0 0 0 0 0 0 0 0 0 0
0 0 0 0 0 0 0 0 0 0 0 0 0 0 0 0 0 0 0 0 0 0 0 0 0 0 0 0 0 0 0 0 0 0 0 0 0 0 0 0 0 0 0
0 0 0 0 0 0 0 0 0 0 0 0 0 0 0 0 0 0 0 0 0 0 0 0 0 0 0 0 0 0 0 0 0 0 0 0 0 0 0 0 0 0 0
Wind_Speed
2 2 1 1 1 1 1 1 1 1 1 1 2 2 2 2 2 2 1 5 6 6 7 8 8 7 7 7 7 7 7 6 6 5 6 6 6 6 6 6 6 6 7
1 1 1 1 1 1 1 1 1 1 0 1 1 1 1 2 2 1 1 3 6 6 7 7 7 8 7 7 7 6 6 7 6 6 6 6 6 6 7 7 7 7 7
1 1 1 0 0 1 1 1 1 1 1 1 1 1 1 1 2 2 1 1 2 4 6 6 7 7 7 7 7 7 6 6 6 6 6 6 6 6 6 7 7 7 7
2 1 1 0 0 1 1 1 1 1 1 1 1 0 0 1 1 2 1 1 1 2 3 6 6 7 8 8 8 8 7 6 6 6 6 6 6 6 6 7 7 6 6
1 1 1 0 1 1 1 1 1 1 1 0 1 0 0 1 1 2 2 2 2 2 2 4 6 7 7 7 7 8 7 7 7 7 7 7 7 7 7 8 8 7 7
1 1 1 0 1 1 1 1 1 1 1 0 1 1 0 1 1 2 2 2 2 2 3 3 3 4 6 6 7 7 7 7 7 7 8 8 8 8 7 8 8 8 8
1 1 1 0 1 1 1 1 1 1 1 1 1 1 1 1 1 1 2 2 2 2 2 3 3 2 3 5 6 6 7 7 8 8 8 8 8 8 8 8 9 9 9
1 1 1 1 1 1 1 1 2 1 1 1 2 1 1 2 2 1 1 2 2 2 2 3 3 3 3 2 3 6 7 7 8 8 8 8 7 8 8 8 8 9 9
0 1 1 1 1 2 2 2 2 2 1 1 1 2 1 1 2 2 1 0 1 1 2 2 3 3 3 3 3 5 6 6 7 7 7 6 5 5 6 6 7 6 6
1 1 1 1 1 1 1 2 2 2 2 1 1 1 1 2 1 1 2 1 1 1 1 2 2 3 3 2 3 4 5 5 6 6 6 5 4 4 4 5 6 7 6
2 1 1 1 1 1 1 1 1 2 2 2 2 1 1 1 1 1 1 2 2 1 1 2 2 2 2 2 3 3 4 4 4 4 4 4 4 4 5 5 5 6 6
1 1 1 1 1 1 1 1 1 2 1 2 1 1 2 1 2 2 2 1 2 2 1 1 2 2 2 2 3 2 2 3 3 3 3 3 4 4 5 5 6 6 5
1 1 0 0 1 1 1 1 1 1 1 2 1 1 1 1 2 2 2 1 1 2 2 1 1 2 2 1 2 3 3 3 3 3 3 3 3 4 3 4 4 5 5
1 1 1 1 1 1 1 1 1 1 1 1 1 1 1 1 1 2 2 2 1 2 1 2 1 1 1 1 2 3 2 3 3 3 3 3 3 3 3 3 3 3 3
1 1 1 1 1 1 1 1 1 1 1 1 1 1 1 1 1 1 2 2 3 2 3 2 2 1 1 1 2 2 2 2 2 2 3 3 3 2 2 3 3 3 3
2 1 1 1 1 1 1 1 1 1 1 1 1 1 1 1 1 1 2 2 2 3 3 2 2 2 2 2 2 2 2 2 2 2 2 2 2 2 2 2 3 3 3
2 2 2 2 2 1 1 1 1 1 1 1 1 1 2 2 1 1 1 2 2 2 3 3 2 2 1 2 2 2 2 2 1 2 2 2 2 3 3 2 2 3 3
2 2 2 2 2 2 2 2 2 2 2 2 2 2 3 2 2 2 1 2 2 2 3 3 2 2 2 2 2 2 2 1 1 2 2 2 3 3 3 3 3 3 3
2 2 2 2 2 2 2 2 2 2 3 3 3 3 3 2 3 2 2 2 2 2 2 2 3 2 2 2 2 2 2 1 2 2 2 2 3 3 3 3 3 2 2
3 2 2 3 3 2 2 2 2 2 2 3 3 3 3 3 3 3 2 3 2 2 2 2 2 2 2 2 1 2 2 2 2 2 2 2 2 3 3 3 3 2 2
3 2 2 2 2 2 2 2 2 2 2 3 3 3 3 3 4 3 3 3 3 2 2 2 2 2 2 1 2 2 2 2 2 1 1 2 2 2 2 3 3 3 3
2 2 2 2 2 2 2 3 2 2 2 3 3 3 3 3 3 3 3 4 4 3 3 3 3 3 3 3 2 2 2 2 2 1 1 2 1 2 2 2 3 4 4
2 3 3 3 3 3 3 3 3 2 3 3 3 3 2 2 2 2 2 3 3 4 4 4 4 4 4 3 3 3 2 3 3 1 1 3 2 3 3 2 4 5 5
2 3 3 3 3 3 2 3 3 2 2 3 3 3 3 3 2 2 2 2 3 3 3 3 4 5 4 3 4 4 3 3 2 1 1 2 2 3 3 3 3 5 5
2 2 2 2 2 3 3 3 3 2 2 3 3 3 3 3 2 1 1 2 3 3 3 2 3 3 3 3 2 1 1 1 2 2 1 2 2 2 3 2 2 4 5
2 1 1 2 2 3 3 2 3 2 3 3 3 3 3 3 3 2 2 2 3 4 2 1 1 2 2 2 3 3 3 3 2 2 1 2 2 1 2 2 2 2 2
Wind_Direction
89 76 63 66 75 86 101 97 91 85 92 117 137 145 149 145 157 176 195 203 201 204 204 203 198 199 203 204 207 208 211 215 215 213 215 218 218 220 227 228 229 230 225
98 85 70 58 60 99 100 104 119 115 94 105 126 133 146 147 158 173 193 213 211 209 212 215 210 211 214 214 216 218 221 224 220 222 225 225 224 227 231 233 234 235 233
123 112 99 70 21 87 93 90 72 75 82 91 96 125 151 163 171 183 197 205 220 224 221 225 226 221 223 226 226 224 227 231 229 232 233 230 229 231 234 239 240 241 239
147 138 135 199 155 115 120 121 96 76 67 99 105 127 160 167 188 187 197 212 216 237 234 232 231 231 231 233 231 228 225 225 229 234 238 237 236 235 235 236 239 241 241
152 144 143 171 129 118 135 146 112 126 117 118 137 142 196 199 213 208 213 225 226 231 236 238 235 237 236 237 237 235 229 227 229 235 241 240 239 238 238 236 237 238 237
143 125 133 137 118 112 116 128 125 104 123 134 90 34 315 253 226 223 227 221 222 229 238 241 241 248 244 241 245 247 244 238 234 236 242 243 244 242 241 240 239 238 234
144 142 169 137 132 148 167 146 139 116 82 112 93 14 340 299 231 239 229 220 232 237 240 240 239 241 251 247 248 251 251 251 246 243 246 248 248 246 245 245 245 241 235
152 163 168 164 154 152 147 150 151 137 103 106 130 102 355 350 347 285 226 223 240 234 242 246 243 235 239 248 256 256 255 256 257 254 251 252 251 248 247 249 249 242 238
123 144 152 147 150 159 173 179 165 159 167 115 128 142 149 250 317 339 340 293 253 221 246 256 250 245 236 241 257 265 261 254 257 258 259 257 255 251 246 249 248 239 236
45 89 110 127 128 132 158 186 168 160 159 168 133 132 163 166 172 328 344 353 332 289 282 275 270 258 243 240 248 255 261 257 255 259 261 262 257 259 257 254 252 244 237
24 48 78 93 105 113 125 133 127 146 162 167 166 155 150 123 161 178 287 325 346 324 291 277 276 274 261 252 253 261 263 264 254 255 256 260 263 261 261 261 263 255 247
3 16 70 81 82 92 113 125 120 129 147 149 153 154 161 171 188 180 220 273 301 307 303 286 277 274 275 273 271 273 254 269 265 263 264 265 267 266 265 262 264 262 256
305 299 75 110 114 124 115 111 113 121 147 146 167 182 187 203 185 174 180 233 275 296 297 282 271 278 282 286 285 294 264 268 270 270 269 273 270 269 264 264 265 263 259
236 244 181 166 165 151 140 122 126 160 138 154 180 184 196 221 196 191 184 186 246 287 292 279 288 287 296 295 298 287 274 269 271 265 260 260 262 260 254 251 251 257 263
219 205 186 186 200 179 169 148 149 179 143 168 208 199 217 242 212 210 201 198 201 242 272 265 263 281 280 267 295 280 275 291 278 251 247 247 254 252 251 244 245 251 255
209 185 189 193 195 191 180 164 182 195 175 222 218 207 235 243 235 215 207 212 212 214 246 259 253 272 288 299 310 280 277 295 288 263 242 247 252 256 253 250 248 248 247
205 205 208 206 203 205 192 180 207 205 204 232 235 220 248 247 242 243 224 214 216 207 232 268 267 276 272 292 308 301 292 279 285 277 256 246 248 251 246 247 247 243 242
211 213 211 211 219 219 208 200 220 224 219 232 243 239 253 249 246 247 233 228 223 214 216 252 274 279 264 274 286 288 296 290 282 283 263 259 255 252 246 249 245 237 236
221 217 209 219 229 230 225 222 220 230 235 240 244 244 249 244 254 246 234 234 232 227 218 233 263 265 266 283 294 292 295 300 292 273 248 255 254 244 245 250 249 240 233
216 220 225 231 235 233 228 223 219 231 240 252 255 249 246 238 242 237 232 229 221 224 235 242 257 265 267 274 258 284 302 303 292 299 298 283 265 249 251 252 249 243 233
221 216 221 235 239 229 225 215 227 234 239 256 263 256 247 239 238 231 227 216 207 214 231 243 254 262 262 268 262 264 273 292 281 279 300 294 285 274 270 256 243 243 238
220 214 221 227 237 240 232 213 207 232 236 241 256 264 261 258 255 244 236 226 211 210 221 231 243 246 252 248 255 252 266 279 283 281 278 282 277 274 276 263 250 239 233
211 218 229 224 236 248 243 226 210 214 229 240 245 253 261 272 265 259 253 243 240 229 212 214 231 244 247 239 235 249 248 251 254 259 249 266 267 276 277 271 254 241 231
212 216 228 231 236 254 243 227 221 222 237 246 242 238 245 262 260 249 258 269 270 261 240 227 230 240 245 234 221 234 246 262 278 249 227 256 268 278 289 282 265 251 243
220 225 227 227 246 267 255 228 199 225 244 256 255 248 245 254 267 237 220 251 272 280 274 258 253 257 258 246 214 201 212 228 266 250 221 252 270 281 279 275 277 268 262
223 229 250 242 240 261 268 239 205 220 244 262 269 263 251 251 245 205 209 231 257 272 281 297 313 311 284 248 218 212 211 219 250 262 220 228 253 279 284 275 284 287 276